コワルスキー彗星

C/2022 D2 ( Kowalski )

English version
Home page
Updated on May 29, 2022

---------------------------------------------------------------------

・ プロフィール

発見日 2022年2月25日
発見光度 19.8等
発見者 R. A. Kowalski (Mt. Lemmon)

・ 写真集

・ 軌道要素

Epoch 2022 Jan. 21.0 TT = JDT 2459600.5
T 2022 Mar. 27.57711 TT                                 Rudenko
q   1.5551627            (2000.0)            P               Q
z  +0.0027592      Peri.  177.79192     -0.64846903     -0.70623079
 +/-0.0000003      Node   312.46951     +0.69238904     -0.39208170
e   0.9957090      Incl.   22.65494     +0.31636267     -0.58949979
From 112 observations 2022 Jan. 21-May 10, mean residual 0".6.

・ 光度変化

        m1 = 16.5 + 5 logΔ + 10.0 log r

---------------------------------------------------------------------

軌道要素はM.P.E.C. 2022-K19に掲載されたものです。
光度グラフはComet for Windowsで作成したものです。

---------------------------------------------------------------------

Copyright(C) Seiichi Yoshida (comet@aerith.net). All rights reserved.